When you browse on this site, cookies collect data to enhance your experience and personalize the content and advertising you see.
Visit our Privacy Policy to learn more. By continuing to use the site, you agree to this use of cookies and data.
  • în România
  • Lista ţărilor
  • Pe 7 zile
  • Temperatura apei
  • Hartă satelitară
  • Meteo pe hartă
  • Widget-uri
  • user-avatar
    Intrare

    Meteo pe oră la Korçe

    Astăzi, 19 Iunie, Miercuri

    Timp Temperatura Precipitaţii Vânt Presiune Umiditate
    00:00 +14°C° 0 mm 0 m/s 666 mmHg 75%
    01:00 +14°C° 0 mm 0 m/s 666 mmHg 75%
    02:00 +14°C° 0 mm 1 m/s 666 mmHg 75%
    03:00 +14°C° 0 mm 1 m/s 666 mmHg 74%
    04:00 +14°C° 0 mm 1 m/s 665 mmHg 74%
    05:00 +16°C° 0 mm 1 m/s 666 mmHg 69%
    06:00 +17°C° 0 mm 0 m/s 667 mmHg 64%
    07:00 +19°C° 0 mm 0 m/s 667 mmHg 59%
    08:00 +22°C° 0 mm 1 m/s 668 mmHg 54%
    09:00 +24°C° 0 mm 1 m/s 668 mmHg 49%
    10:00 +25°C° 0 mm 1 m/s 668 mmHg 44%
    11:00 +25°C° 0 mm 2 m/s 668 mmHg 43%
    12:00 +25°C° 0 mm 2 m/s 668 mmHg 43%
    13:00 +26°C° 0 mm 3 m/s 668 mmHg 42%
    14:00 +25°C° 0 mm 3 m/s 668 mmHg 45%
    15:00 +25°C° 0 mm 3 m/s 667 mmHg 47%
    16:00 +24°C° 0 mm 3 m/s 667 mmHg 50%
    17:00 +21°C° 0 mm 2 m/s 666 mmHg 60%
    18:00 +19°C° 0 mm 2 m/s 666 mmHg 71%
    19:00 +17°C° 0 mm 2 m/s 665 mmHg 82%
    20:00 +18°C° 0 mm 1 m/s 665 mmHg 84%
    21:00 +16°C° 0 mm 1 m/s 665 mmHg 87%
    22:00 +15°C° 0 mm 1 m/s 665 mmHg 90%
    23:00 +14°C° 0 mm 1 m/s 665 mmHg 88%

    Mâine, 20 Iunie, Joi

    Timp Temperatura Precipitaţii Vânt Presiune Umiditate
    00:00 +14°C° 0 mm 1 m/s 665 mmHg 86%
    01:00 +14°C° 0 mm 1 m/s 665 mmHg 83%
    02:00 +14°C° 0 mm 1 m/s 664 mmHg 83%
    03:00 +13°C° 0 mm 1 m/s 664 mmHg 82%
    04:00 +13°C° 0 mm 1 m/s 664 mmHg 81%
    05:00 +15°C° 0 mm 1 m/s 665 mmHg 74%
    06:00 +18°C° 0 mm 1 m/s 666 mmHg 68%
    07:00 +20°C° 0 mm 1 m/s 666 mmHg 62%
    08:00 +21°C° 0 mm 1 m/s 667 mmHg 56%
    09:00 +23°C° 0 mm 2 m/s 667 mmHg 51%
    10:00 +24°C° 0 mm 2 m/s 667 mmHg 45%
    11:00 +24°C° 0 mm 3 m/s 667 mmHg 46%
    12:00 +25°C° 0 mm 3 m/s 667 mmHg 46%
    13:00 +25°C° 0 mm 3 m/s 667 mmHg 47%
    14:00 +25°C° 0 mm 3 m/s 667 mmHg 49%
    15:00 +25°C° 0 mm 3 m/s 667 mmHg 52%
    16:00 +24°C° 0 mm 3 m/s 666 mmHg 55%
    17:00 +21°C° 0 mm 3 m/s 666 mmHg 63%
    18:00 +19°C° 0 mm 2 m/s 666 mmHg 72%
    19:00 +18°C° 0 mm 1 m/s 665 mmHg 81%
    20:00 +16°C° 0 mm 1 m/s 665 mmHg 83%
    21:00 +16°C° 0 mm 1 m/s 665 mmHg 85%
    22:00 +15°C° 0 mm 1 m/s 665 mmHg 87%
    23:00 +15°C° 0 mm 1 m/s 665 mmHg 84%

    Poimâine, 21 Iunie, Vineri

    Timp Temperatura Precipitaţii Vânt Presiune Umiditate
    00:00 +13°C° 0 mm 0 m/s 665 mmHg 82%
    01:00 +13°C° 0 mm 0 m/s 665 mmHg 79%
    02:00 +14°C° 0 mm 1 m/s 665 mmHg 77%
    03:00 +14°C° 0 mm 1 m/s 665 mmHg 76%
    04:00 +14°C° 0 mm 1 m/s 665 mmHg 74%
    05:00 +16°C° 0 mm 1 m/s 666 mmHg 69%
    06:00 +19°C° 0 mm 1 m/s 667 mmHg 65%
    07:00 +21°C° 0 mm 1 m/s 667 mmHg 60%
    08:00 +22°C° 0 mm 1 m/s 668 mmHg 57%
    09:00 +24°C° 0 mm 1 m/s 668 mmHg 54%
    10:00 +25°C° 0 mm 2 m/s 669 mmHg 51%
    11:00 +26°C° 0 mm 2 m/s 669 mmHg 51%
    12:00 +26°C° 0 mm 2 m/s 669 mmHg 50%
    13:00 +27°C° 0 mm 3 m/s 669 mmHg 50%
    14:00 +26°C° 0.2 mm 3 m/s 668 mmHg 54%
    15:00 +26°C° 0.2 mm 3 m/s 668 mmHg 57%
    16:00 +25°C° 0.2 mm 3 m/s 668 mmHg 61%
    17:00 +23°C° 0 mm 2 m/s 667 mmHg 69%
    18:00 +20°C° 0 mm 2 m/s 667 mmHg 76%
    19:00 +19°C° 0 mm 1 m/s 667 mmHg 83%
    20:00 +19°C° 0 mm 1 m/s 667 mmHg 84%
    21:00 +18°C° 0 mm 1 m/s 667 mmHg 85%
    22:00 +16°C° 0 mm 1 m/s 667 mmHg 85%
    23:00 +15°C° 0 mm 1 m/s 667 mmHg 81%

    22 Iunie, Sâmbătă

    Timp Temperatura Precipitaţii Vânt Presiune Umiditate
    00:00 +15°C° 0 mm 1 m/s 666 mmHg 77%
    01:00 +15°C° 0 mm 1 m/s 666 mmHg 73%
    02:00 +15°C° 0 mm 1 m/s 666 mmHg 73%
    03:00 +14°C° 0 mm 1 m/s 666 mmHg 70%
    04:00 +14°C° 0 mm 1 m/s 666 mmHg 66%
    05:00 +16°C° 0 mm 1 m/s 667 mmHg 61%
    06:00 +18°C° 0 mm 0 m/s 667 mmHg 56%
    07:00 +20°C° 0 mm 0 m/s 668 mmHg 51%
    08:00 +24°C° 0 mm 1 m/s 669 mmHg 45%
    09:00 +25°C° 0 mm 1 m/s 669 mmHg 40%
    10:00 +27°C° 0 mm 1 m/s 670 mmHg 34%
    11:00 +28°C° 0 mm 1 m/s 670 mmHg 33%
    12:00 +28°C° 0 mm 2 m/s 670 mmHg 32%
    13:00 +29°C° 0 mm 2 m/s 670 mmHg 31%
    14:00 +29°C° 0 mm 2 m/s 670 mmHg 33%
    15:00 +29°C° 0 mm 2 m/s 669 mmHg 34%
    16:00 +28°C° 0 mm 2 m/s 669 mmHg 36%
    17:00 +26°C° 0 mm 1 m/s 669 mmHg 44%
    18:00 +24°C° 0 mm 1 m/s 668 mmHg 51%
    19:00 +21°C° 0 mm 1 m/s 668 mmHg 59%
    20:00 +21°C° 0 mm 1 m/s 668 mmHg 60%
    21:00 +20°C° 0 mm 1 m/s 668 mmHg 60%
    22:00 +19°C° 0 mm 1 m/s 668 mmHg 60%
    23:00 +19°C° 0 mm 1 m/s 667 mmHg 59%

    23 Iunie, Duminică

    Timp Temperatura Precipitaţii Vânt Presiune Umiditate
    00:00 +19°C° 0 mm 1 m/s 667 mmHg 58%
    01:00 +19°C° 0 mm 1 m/s 667 mmHg 58%
    02:00 +18°C° 0 mm 1 m/s 667 mmHg 58%
    03:00 +18°C° 0 mm 1 m/s 667 mmHg 58%
    04:00 +18°C° 0 mm 1 m/s 667 mmHg 58%
    05:00 +20°C° 0 mm 1 m/s 667 mmHg 56%
    06:00 +22°C° 0 mm 1 m/s 668 mmHg 54%
    07:00 +24°C° 0 mm 1 m/s 669 mmHg 51%
    08:00 +26°C° 0 mm 1 m/s 670 mmHg 48%
    09:00 +27°C° 0 mm 1 m/s 670 mmHg 44%
    10:00 +29°C° 0 mm 1 m/s 670 mmHg 40%
    11:00 +29°C° 0 mm 2 m/s 670 mmHg 39%
    12:00 +29°C° 0 mm 3 m/s 670 mmHg 38%
    13:00 +30°C° 0 mm 3 m/s 670 mmHg 38%
    14:00 +29°C° 0 mm 3 m/s 670 mmHg 40%
    15:00 +28°C° 0 mm 3 m/s 670 mmHg 41%
    16:00 +28°C° 0 mm 3 m/s 669 mmHg 43%
    17:00 +26°C° 0 mm 2 m/s 669 mmHg 52%
    18:00 +23°C° 0 mm 2 m/s 668 mmHg 62%
    19:00 +21°C° 0 mm 1 m/s 668 mmHg 71%
    20:00 +20°C° 0 mm 1 m/s 668 mmHg 74%
    21:00 +19°C° 0 mm 1 m/s 668 mmHg 78%
    22:00 +18°C° 0 mm 1 m/s 668 mmHg 81%
    23:00 +18°C° 0 mm 1 m/s 668 mmHg 79%

    24 Iunie, Luni

    Timp Temperatura Precipitaţii Vânt Presiune Umiditate
    00:00 +18°C° 0 mm 1 m/s 668 mmHg 77%
    01:00 +18°C° 0 mm 1 m/s 668 mmHg 75%
    02:00 +16°C° 0 mm 1 m/s 668 mmHg 72%
    03:00 +16°C° 0 mm 1 m/s 668 mmHg 70%
    04:00 +16°C° 0 mm 1 m/s 668 mmHg 68%
    05:00 +19°C° 0 mm 1 m/s 668 mmHg 64%
    06:00 +21°C° 0 mm 1 m/s 669 mmHg 60%
    07:00 +23°C° 0 mm 1 m/s 670 mmHg 56%
    08:00 +25°C° 0 mm 1 m/s 670 mmHg 52%
    09:00 +27°C° 0 mm 1 m/s 670 mmHg 48%
    10:00 +28°C° 0 mm 2 m/s 671 mmHg 44%
    11:00 +29°C° 0 mm 2 m/s 671 mmHg 43%
    12:00 +29°C° 0 mm 2 m/s 671 mmHg 42%
    13:00 +30°C° 0 mm 3 m/s 671 mmHg 41%
    14:00 +29°C° 0 mm 3 m/s 670 mmHg 45%
    15:00 +28°C° 0 mm 3 m/s 670 mmHg 50%
    16:00 +28°C° 0 mm 3 m/s 670 mmHg 55%
    17:00 +26°C° 0.1 mm 3 m/s 669 mmHg 63%
    18:00 +24°C° 0.1 mm 2 m/s 669 mmHg 72%
    19:00 +21°C° 0.1 mm 2 m/s 669 mmHg 80%
    20:00 +20°C° 0 mm 2 m/s 669 mmHg 81%
    21:00 +20°C° 0 mm 2 m/s 669 mmHg 82%
    22:00 +20°C° 0 mm 1 m/s 669 mmHg 83%
    23:00 +18°C° 0 mm 2 m/s 669 mmHg 84%
    Arată mai mult